Weather History for KLYH - November, 2012

Change the Weather History Date:

Friday, November 23, 2012

  Actual Average Record
Temperature  
Mean Temperature 47 °F 44 °F  
Max Temperature 67 °F 55 °F 79 °F (1900)
Min Temperature 26 °F 33 °F 15 °F (1964)
Degree Days  
Heating Degree Days 18 21  
Month to date heating degree days 467 392  
Since 1 July heating degree days 786 739  
Cooling Degree Days 0 0  
Month to date cooling degree days 0 0  
Year to date cooling degree days 1244 1031  
Moisture  
Dew Point 31 °F    
Average Humidity 59    
Maximum Humidity 85    
Minimum Humidity 32    
Precipitation  
Precipitation T in 0.11 in 1.32 in (1901)
Month to date precipitation 0.55 2.62  
Year to date precipitation 27.13 37.54  
Snow  
Snow 0.00 in - - ()
Month to date snowfall 0.0  
Since 1 July snowfall 0.0  
Since 1 September snowfall 0.0  
Snow Depth 0.00 in    
Sea Level Pressure  
Sea Level Pressure 29.99 in    
Wind  
Wind Speed 6 mph (WSW)    
Max Wind Speed 15 mph    
Max Gust Speed 25 mph    
Visibility 10 miles    
Events      
T = Trace of Precipitation, MM = Missing Value Source: NWS Daily Summary

Daily Weather History Graph

Daily Weather History Graph

Search for Another Location

Airport or City:

Trip Planner

Search our weather history database for the weather conditions in past years. The results will help you decide how hot, cold, wet, or windy it might be!

Date:

Astronomy

Nov. 23, 2012 Rise Set
Actual Time 7:04 AM EST 5:01 PM EST
Civil Twilight 6:36 AM EST 5:29 PM EST
Nautical Twilight 6:04 AM EST 6:01 PM EST
Astronomical Twilight 5:33 AM EST 6:33 PM EST
Moon 2:10 PM EST (11/23) 2:27 AM EST (11/23)
Length of Visible Light 10h 53m
Length of Day
9h 56m
Waxing Gibbous, 79% of the Moon is Illuminated
Nov 23
Waxing Gibbous
Nov 28
Full
Dec 6
Last Quarter
Dec 13
New
Dec 20
First Quarter

Hourly Weather History & Observations

Time (EST) Temp. Windchill Dew Point Humidity Pressure Visibility Wind Dir Wind Speed Gust Speed Precip Events Conditions
12:54 AM 30.9 °F - 25.0 °F 79% 30.16 in 10.0 mi Calm Calm - N/A   Clear
1:54 AM 30.0 °F - 24.1 °F 79% 30.16 in 10.0 mi Calm Calm - N/A   Clear
2:54 AM 28.0 °F - 24.1 °F 85% 30.14 in 10.0 mi Calm Calm - N/A   Clear
3:54 AM 28.9 °F - 24.1 °F 82% 30.12 in 10.0 mi Calm Calm - N/A   Clear
4:54 AM 28.0 °F - 25.0 °F 88% 30.13 in 10.0 mi Calm Calm - N/A   Clear
5:54 AM 26.1 °F 21.9 °F 23.0 °F 88% 30.11 in 10.0 mi SSW 3.5 mph - N/A   Clear
6:54 AM 32.0 °F 27.5 °F 26.1 °F 79% 30.09 in 10.0 mi SW 4.6 mph - N/A   Clear
7:54 AM 36.0 °F 33.3 °F 28.9 °F 76% 30.09 in 10.0 mi SSW 3.5 mph - N/A   Clear
8:54 AM 42.1 °F 38.4 °F 28.9 °F 60% 30.07 in 10.0 mi SSW 5.8 mph - N/A   Clear
9:54 AM 48.0 °F - 30.9 °F 52% 30.05 in 10.0 mi SSW 8.1 mph - N/A   Clear
10:54 AM 55.9 °F - 34.0 °F 44% 30.01 in 10.0 mi SW 9.2 mph - N/A   Clear
11:54 AM 62.1 °F - 36.0 °F 38% 29.97 in 10.0 mi SW 10.4 mph 16.1 mph N/A   Clear
12:54 PM 64.9 °F - 36.0 °F 34% 29.93 in 10.0 mi WSW 9.2 mph 20.7 mph N/A   Clear
1:54 PM 66.0 °F - 35.1 °F 32% 29.89 in 10.0 mi SW 9.2 mph 16.1 mph N/A   Clear
2:54 PM 64.9 °F - 35.1 °F 33% 29.87 in 10.0 mi SW 8.1 mph - N/A   Clear
3:54 PM 64.9 °F - 39.0 °F 39% 29.86 in 10.0 mi West 9.2 mph 16.1 mph 0.00 in   Mostly Cloudy
4:54 PM 62.1 °F - 39.9 °F 44% 29.87 in 10.0 mi West 8.1 mph - N/A   Overcast
5:54 PM 61.0 °F - 43.0 °F 52% 29.88 in 10.0 mi WSW 10.4 mph 19.6 mph N/A   Overcast
6:54 PM 59.0 °F - 42.1 °F 53% 29.88 in 10.0 mi West 6.9 mph - N/A   Partly Cloudy
7:54 PM 55.9 °F - 37.0 °F 49% 29.89 in 10.0 mi WNW 9.2 mph 23.0 mph N/A   Clear
8:54 PM 52.0 °F - 32.0 °F 47% 29.90 in 10.0 mi West 9.2 mph - N/A   Clear
9:54 PM 51.1 °F - 27.0 °F 39% 29.92 in 10.0 mi WNW 8.1 mph - N/A   Clear
10:54 PM 48.0 °F - 28.0 °F 46% 29.91 in 10.0 mi Variable 3.5 mph - N/A   Clear
11:54 PM 45.0 °F 42.6 °F 28.0 °F 52% 29.90 in 10.0 mi WNW 4.6 mph - N/A   Clear